Year,Month,Day,Hour,Minute,Value (Times are PST for barometer in hPa)
2008,01,05,00,00,973.31
2008,01,05,00,01,973.32
2008,01,05,00,02,973.32
2008,01,05,00,03,973.32
2008,01,05,00,04,973.32
2008,01,05,00,05,973.32
2008,01,05,00,06,973.32
2008,01,05,00,07,973.32
2008,01,05,00,08,973.32
2008,01,05,00,09,973.32
2008,01,05,00,10,973.32
2008,01,05,00,11,973.32
2008,01,05,00,12,973.32
2008,01,05,00,13,973.32
2008,01,05,00,14,973.33
2008,01,05,00,15,973.49
2008,01,05,00,16,973.49
2008,01,05,00,17,973.49
2008,01,05,00,18,973.49
2008,01,05,00,19,973.49
2008,01,05,00,20,973.49
2008,01,05,00,21,973.49
2008,01,05,00,22,973.49
2008,01,05,00,23,973.49
2008,01,05,00,24,973.49
2008,01,05,00,25,973.49
2008,01,05,00,26,973.49
2008,01,05,00,27,973.49
2008,01,05,00,28,973.49
2008,01,05,00,29,973.49
2008,01,05,00,30,973.65
2008,01,05,00,31,973.65
2008,01,05,00,32,973.65
2008,01,05,00,33,973.65
2008,01,05,00,34,973.65
2008,01,05,00,35,973.65
2008,01,05,00,36,973.65
2008,01,05,00,37,973.65
2008,01,05,00,38,973.65
2008,01,05,00,39,973.65
2008,01,05,00,40,973.65
2008,01,05,00,41,973.65
2008,01,05,00,42,973.65
2008,01,05,00,43,973.65
2008,01,05,00,44,973.65
2008,01,05,00,45,973.65
2008,01,05,00,46,973.65
2008,01,05,00,47,973.65
2008,01,05,00,48,973.65
2008,01,05,00,49,973.65
2008,01,05,00,50,973.65
2008,01,05,00,51,973.65
2008,01,05,00,52,973.65
2008,01,05,00,53,973.65
2008,01,05,00,54,973.65
2008,01,05,00,55,973.65
2008,01,05,00,56,973.65
2008,01,05,00,57,973.65
2008,01,05,00,58,973.65
2008,01,05,00,59,973.66
2008,01,05,01,00,973.76
2008,01,05,01,01,973.76
2008,01,05,01,02,973.76
2008,01,05,01,03,973.76
2008,01,05,01,04,973.76
2008,01,05,01,05,973.76
2008,01,05,01,06,973.76
2008,01,05,01,07,973.76
2008,01,05,01,08,973.76
2008,01,05,01,09,973.76
2008,01,05,01,10,973.76
2008,01,05,01,11,973.76
2008,01,05,01,12,973.76
2008,01,05,01,13,973.76
2008,01,05,01,14,973.76
2008,01,05,01,15,973.72
2008,01,05,01,16,973.72
2008,01,05,01,17,973.72
2008,01,05,01,18,973.72
2008,01,05,01,19,973.72
2008,01,05,01,20,973.72
2008,01,05,01,21,973.72
2008,01,05,01,22,973.72
2008,01,05,01,23,973.72
2008,01,05,01,24,973.72
2008,01,05,01,25,973.72
2008,01,05,01,26,973.72
2008,01,05,01,27,973.72
2008,01,05,01,28,973.72
2008,01,05,01,29,973.72
2008,01,05,01,30,973.79
2008,01,05,01,31,973.79
2008,01,05,01,32,973.79
2008,01,05,01,33,973.79
2008,01,05,01,34,973.79
2008,01,05,01,35,973.79
2008,01,05,01,36,973.79
2008,01,05,01,37,973.79
2008,01,05,01,38,973.79
2008,01,05,01,39,973.79
2008,01,05,01,40,973.79
2008,01,05,01,41,973.79
2008,01,05,01,42,973.79
2008,01,05,01,43,973.79
2008,01,05,01,44,973.79
2008,01,05,01,45,974.70
2008,01,05,01,46,974.70
2008,01,05,01,47,974.70
2008,01,05,01,48,974.70
2008,01,05,01,49,974.70
2008,01,05,01,50,974.70
2008,01,05,01,51,974.70
2008,01,05,01,52,974.70
2008,01,05,01,53,974.70
2008,01,05,01,54,974.70
2008,01,05,01,55,974.70
2008,01,05,01,56,974.70
2008,01,05,01,57,974.70
2008,01,05,01,58,974.70
2008,01,05,01,59,974.70
2008,01,05,02,00,975.14
2008,01,05,02,01,975.14
2008,01,05,02,02,975.14
2008,01,05,02,03,975.14
2008,01,05,02,04,975.14
2008,01,05,02,05,975.14
2008,01,05,02,06,975.14
2008,01,05,02,07,975.14
2008,01,05,02,08,975.14
2008,01,05,02,09,975.14
2008,01,05,02,10,975.14
2008,01,05,02,11,975.14
2008,01,05,02,12,975.14
2008,01,05,02,13,975.14
2008,01,05,02,14,975.14
2008,01,05,02,15,975.59
2008,01,05,02,16,975.59
2008,01,05,02,17,975.59
2008,01,05,02,18,975.59
2008,01,05,02,19,975.59
2008,01,05,02,20,975.59
2008,01,05,02,21,975.59
2008,01,05,02,22,975.59
2008,01,05,02,23,975.59
2008,01,05,02,24,975.59
2008,01,05,02,25,975.59
2008,01,05,02,26,975.59
2008,01,05,02,27,975.59
2008,01,05,02,28,975.59
2008,01,05,02,29,975.62
2008,01,05,02,30,976.23
2008,01,05,02,31,976.23
2008,01,05,02,32,976.23
2008,01,05,02,33,976.23
2008,01,05,02,34,976.23
2008,01,05,02,35,976.23
2008,01,05,02,36,976.23
2008,01,05,02,37,976.23
2008,01,05,02,38,976.23
2008,01,05,02,39,976.23
2008,01,05,02,40,976.23
2008,01,05,02,41,976.23
2008,01,05,02,42,976.23
2008,01,05,02,43,976.23
2008,01,05,02,44,976.23
2008,01,05,02,45,977.28
2008,01,05,02,46,977.28
2008,01,05,02,47,977.28
2008,01,05,02,48,977.28
2008,01,05,02,49,977.28
2008,01,05,02,50,977.28
2008,01,05,02,51,977.28
2008,01,05,02,52,977.28
2008,01,05,02,53,977.28
2008,01,05,02,54,977.28
2008,01,05,02,55,977.28
2008,01,05,02,56,977.28
2008,01,05,02,57,977.28
2008,01,05,02,58,977.28
2008,01,05,02,59,977.28
2008,01,05,03,00,977.85
2008,01,05,03,01,977.85
2008,01,05,03,02,977.85
2008,01,05,03,03,977.85
2008,01,05,03,04,977.85
2008,01,05,03,05,977.85
2008,01,05,03,06,977.85
2008,01,05,03,07,977.85
2008,01,05,03,08,977.85
2008,01,05,03,09,977.85
2008,01,05,03,10,977.85
2008,01,05,03,11,977.85
2008,01,05,03,12,977.85
2008,01,05,03,13,977.85
2008,01,05,03,14,977.85
2008,01,05,03,15,978.16
2008,01,05,03,16,978.16
2008,01,05,03,17,978.16
2008,01,05,03,18,978.16
2008,01,05,03,19,978.16
2008,01,05,03,20,978.16
2008,01,05,03,21,978.16
2008,01,05,03,22,978.16
2008,01,05,03,23,978.16
2008,01,05,03,24,978.16
2008,01,05,03,25,978.16
2008,01,05,03,26,978.16
2008,01,05,03,27,978.16
2008,01,05,03,28,978.16
2008,01,05,03,29,978.16
2008,01,05,03,30,978.40
2008,01,05,03,31,978.40
2008,01,05,03,32,978.40
2008,01,05,03,33,978.40
2008,01,05,03,34,978.40
2008,01,05,03,35,978.40
2008,01,05,03,36,978.40
2008,01,05,03,37,978.40
2008,01,05,03,38,978.40
2008,01,05,03,39,978.40
2008,01,05,03,40,978.40
2008,01,05,03,41,978.40
2008,01,05,03,42,978.40
2008,01,05,03,43,978.40
2008,01,05,03,44,978.40
2008,01,05,03,45,978.94
2008,01,05,03,46,978.94
2008,01,05,03,47,978.94
2008,01,05,03,48,978.94
2008,01,05,03,49,978.94
2008,01,05,03,50,978.94
2008,01,05,03,51,978.94
2008,01,05,03,52,978.94
2008,01,05,03,53,978.94
2008,01,05,03,54,978.94
2008,01,05,03,55,978.94
2008,01,05,03,56,978.94
2008,01,05,03,57,978.94
2008,01,05,03,58,978.94
2008,01,05,03,59,978.94
2008,01,05,04,00,979.34
2008,01,05,04,01,979.34
2008,01,05,04,02,979.34
2008,01,05,04,03,979.34
2008,01,05,04,04,979.34
2008,01,05,04,05,979.34
2008,01,05,04,06,979.34
2008,01,05,04,07,979.34
2008,01,05,04,08,979.34
2008,01,05,04,09,979.34
2008,01,05,04,10,979.34
2008,01,05,04,11,979.34
2008,01,05,04,12,979.34
2008,01,05,04,13,979.34
2008,01,05,04,14,979.35
2008,01,05,04,15,979.61
2008,01,05,04,16,979.61
2008,01,05,04,17,979.61
2008,01,05,04,18,979.61
2008,01,05,04,19,979.61
2008,01,05,04,20,979.61
2008,01,05,04,21,979.61
2008,01,05,04,22,979.61
2008,01,05,04,23,979.61
2008,01,05,04,24,979.61
2008,01,05,04,25,979.61
2008,01,05,04,26,979.61
2008,01,05,04,27,979.61
2008,01,05,04,28,979.61
2008,01,05,04,29,979.61
2008,01,05,04,30,980.02
2008,01,05,04,31,980.02
2008,01,05,04,32,980.02
2008,01,05,04,33,980.02
2008,01,05,04,34,980.02
2008,01,05,04,35,980.02
2008,01,05,04,36,980.02
2008,01,05,04,37,980.02
2008,01,05,04,38,980.02
2008,01,05,04,39,980.02
2008,01,05,04,40,980.02
2008,01,05,04,41,980.02
2008,01,05,04,42,980.02
2008,01,05,04,43,980.02
2008,01,05,04,44,980.02
2008,01,05,04,45,980.46
2008,01,05,04,46,980.46
2008,01,05,04,47,980.46
2008,01,05,04,48,980.46
2008,01,05,04,49,980.46
2008,01,05,04,50,980.46
2008,01,05,04,51,980.46
2008,01,05,04,52,980.46
2008,01,05,04,53,980.46
2008,01,05,04,54,980.46
2008,01,05,04,55,980.46
2008,01,05,04,56,980.46
2008,01,05,04,57,980.46
2008,01,05,04,58,980.46
2008,01,05,04,59,980.46
2008,01,05,05,00,980.66
2008,01,05,05,01,980.66
2008,01,05,05,02,980.66
2008,01,05,05,03,980.66
2008,01,05,05,04,980.66
2008,01,05,05,05,980.66
2008,01,05,05,06,980.66
2008,01,05,05,07,980.66
2008,01,05,05,08,980.66
2008,01,05,05,09,980.66
2008,01,05,05,10,980.66
2008,01,05,05,11,980.66
2008,01,05,05,12,980.66
2008,01,05,05,13,980.66
2008,01,05,05,14,980.66
2008,01,05,05,15,981.07
2008,01,05,05,16,981.07
2008,01,05,05,17,981.07
2008,01,05,05,18,981.07
2008,01,05,05,19,981.07
2008,01,05,05,20,981.07
2008,01,05,05,21,981.07
2008,01,05,05,22,981.07
2008,01,05,05,23,981.07
2008,01,05,05,24,981.07
2008,01,05,05,25,981.07
2008,01,05,05,26,981.07
2008,01,05,05,27,981.07
2008,01,05,05,28,981.07
2008,01,05,05,29,981.07
2008,01,05,05,30,981.49
2008,01,05,05,31,981.51
2008,01,05,05,32,981.51
2008,01,05,05,33,981.51
2008,01,05,05,34,981.51
2008,01,05,05,35,981.51
2008,01,05,05,36,981.51
2008,01,05,05,37,981.51
2008,01,05,05,38,981.51
2008,01,05,05,39,981.51
2008,01,05,05,40,981.51
2008,01,05,05,41,981.51
2008,01,05,05,42,981.51
2008,01,05,05,43,981.51
2008,01,05,05,44,981.51
2008,01,05,05,45,981.51
2008,01,05,05,46,981.51
2008,01,05,05,47,981.51
2008,01,05,05,48,981.51
2008,01,05,05,49,981.51
2008,01,05,05,50,981.51
2008,01,05,05,51,981.51
2008,01,05,05,52,981.51
2008,01,05,05,53,981.51
2008,01,05,05,54,981.51
2008,01,05,05,55,981.51
2008,01,05,05,56,981.51
2008,01,05,05,57,981.51
2008,01,05,05,58,981.51
2008,01,05,05,59,981.51
2008,01,05,06,00,981.99
2008,01,05,06,01,981.99
2008,01,05,06,02,981.99
2008,01,05,06,03,981.99
2008,01,05,06,04,981.99
2008,01,05,06,05,981.99
2008,01,05,06,06,981.99
2008,01,05,06,07,981.99
2008,01,05,06,08,981.99
2008,01,05,06,09,981.99
2008,01,05,06,10,981.99
2008,01,05,06,11,981.99
2008,01,05,06,12,981.99
2008,01,05,06,13,981.99
2008,01,05,06,14,981.99
2008,01,05,06,15,982.22
2008,01,05,06,16,982.22
2008,01,05,06,17,982.22
2008,01,05,06,18,982.22
2008,01,05,06,19,982.22
2008,01,05,06,20,982.22
2008,01,05,06,21,982.22
2008,01,05,06,22,982.22
2008,01,05,06,23,982.22
2008,01,05,06,24,982.22
2008,01,05,06,25,982.22
2008,01,05,06,26,982.22
2008,01,05,06,27,982.22
2008,01,05,06,28,982.22
2008,01,05,06,29,982.22
2008,01,05,06,30,982.53
2008,01,05,06,31,982.53
2008,01,05,06,32,982.53
2008,01,05,06,33,982.53
2008,01,05,06,34,982.53
2008,01,05,06,35,982.53
2008,01,05,06,36,982.53
2008,01,05,06,37,982.53
2008,01,05,06,38,982.53
2008,01,05,06,39,982.53
2008,01,05,06,40,982.53
2008,01,05,06,41,982.53
2008,01,05,06,42,982.53
2008,01,05,06,43,982.53
2008,01,05,06,44,982.53
2008,01,05,06,45,983.02
2008,01,05,06,46,983.04
2008,01,05,06,47,983.04
2008,01,05,06,48,983.04
2008,01,05,06,49,983.04
2008,01,05,06,50,983.04
2008,01,05,06,51,983.04
2008,01,05,06,52,983.04
2008,01,05,06,53,983.04
2008,01,05,06,54,983.04
2008,01,05,06,55,983.04
2008,01,05,06,56,983.04
2008,01,05,06,57,983.04
2008,01,05,06,58,983.04
2008,01,05,06,59,983.04
2008,01,05,07,00,983.20
2008,01,05,07,01,983.20
2008,01,05,07,02,983.20
2008,01,05,07,03,983.20
2008,01,05,07,04,983.20
2008,01,05,07,05,983.20
2008,01,05,07,06,983.20
2008,01,05,07,07,983.20
2008,01,05,07,08,983.20
2008,01,05,07,09,983.20
2008,01,05,07,10,983.20
2008,01,05,07,11,983.20
2008,01,05,07,12,983.20
2008,01,05,07,13,983.20
2008,01,05,07,14,983.20
2008,01,05,07,15,983.61
2008,01,05,07,16,983.61
2008,01,05,07,17,983.61
2008,01,05,07,18,983.61
2008,01,05,07,19,983.61
2008,01,05,07,20,983.61
2008,01,05,07,21,983.61
2008,01,05,07,22,983.61
2008,01,05,07,23,983.61
2008,01,05,07,24,983.61
2008,01,05,07,25,983.61
2008,01,05,07,26,983.61
2008,01,05,07,27,983.61
2008,01,05,07,28,983.61
2008,01,05,07,29,983.61
2008,01,05,07,30,983.91
2008,01,05,07,31,983.92
2008,01,05,07,32,983.92
2008,01,05,07,33,983.92
2008,01,05,07,34,983.92
2008,01,05,07,35,983.92
2008,01,05,07,36,983.92
2008,01,05,07,37,983.92
2008,01,05,07,38,983.92
2008,01,05,07,39,983.92
2008,01,05,07,40,983.92
2008,01,05,07,41,983.92
2008,01,05,07,42,983.92
2008,01,05,07,43,983.92
2008,01,05,07,44,983.92
2008,01,05,07,45,984.12
2008,01,05,07,46,984.12
2008,01,05,07,47,984.12
2008,01,05,07,48,984.12
2008,01,05,07,49,984.12
2008,01,05,07,50,984.12
2008,01,05,07,51,984.12
2008,01,05,07,52,984.12
2008,01,05,07,53,984.12
2008,01,05,07,54,984.12
2008,01,05,07,55,984.12
2008,01,05,07,56,984.12
2008,01,05,07,57,984.12
2008,01,05,07,58,984.12
2008,01,05,07,59,984.12
2008,01,05,08,00,984.56
2008,01,05,08,01,984.56
2008,01,05,08,02,984.56
2008,01,05,08,03,984.56
2008,01,05,08,04,984.56
2008,01,05,08,05,984.56
2008,01,05,08,06,984.56
2008,01,05,08,07,984.56
2008,01,05,08,08,984.56
2008,01,05,08,09,984.56
2008,01,05,08,10,984.56
2008,01,05,08,11,984.56
2008,01,05,08,12,984.56
2008,01,05,08,13,984.56
2008,01,05,08,14,984.56
2008,01,05,08,15,984.79
2008,01,05,08,16,984.80
2008,01,05,08,17,984.80
2008,01,05,08,18,984.80
2008,01,05,08,19,984.80
2008,01,05,08,20,984.80
2008,01,05,08,21,984.80
2008,01,05,08,22,984.80
2008,01,05,08,23,984.80
2008,01,05,08,24,984.80
2008,01,05,08,25,984.80
2008,01,05,08,26,984.80
2008,01,05,08,27,984.80
2008,01,05,08,28,984.80
2008,01,05,08,29,984.80
2008,01,05,08,30,985.41
2008,01,05,08,31,985.41
2008,01,05,08,32,985.41
2008,01,05,08,33,985.41
2008,01,05,08,34,985.41
2008,01,05,08,35,985.41
2008,01,05,08,36,985.41
2008,01,05,08,37,985.41
2008,01,05,08,38,985.41
2008,01,05,08,39,985.41
2008,01,05,08,40,985.41
2008,01,05,08,41,985.41
2008,01,05,08,42,985.41
2008,01,05,08,43,985.41
2008,01,05,08,44,985.41
2008,01,05,08,45,985.60
2008,01,05,08,46,985.61
2008,01,05,08,47,985.61
2008,01,05,08,48,985.61
2008,01,05,08,49,985.61
2008,01,05,08,50,985.61
2008,01,05,08,51,985.61
2008,01,05,08,52,985.61
2008,01,05,08,53,985.61
2008,01,05,08,54,985.61
2008,01,05,08,55,985.61
2008,01,05,08,56,985.61
2008,01,05,08,57,985.61
2008,01,05,08,58,985.61
2008,01,05,08,59,985.61
2008,01,05,09,00,986.18
2008,01,05,09,01,986.18
2008,01,05,09,02,986.18
2008,01,05,09,03,986.18
2008,01,05,09,04,986.18
2008,01,05,09,05,986.18
2008,01,05,09,06,986.18
2008,01,05,09,07,986.18
2008,01,05,09,08,986.18
2008,01,05,09,09,986.18
2008,01,05,09,10,986.18
2008,01,05,09,11,986.18
2008,01,05,09,12,986.18
2008,01,05,09,13,986.18
2008,01,05,09,14,986.18
2008,01,05,09,15,986.69
2008,01,05,09,16,986.69
2008,01,05,09,17,986.69
2008,01,05,09,18,986.69
2008,01,05,09,19,986.69
2008,01,05,09,20,986.69
2008,01,05,09,21,986.69
2008,01,05,09,22,986.69
2008,01,05,09,23,986.69
2008,01,05,09,24,986.69
2008,01,05,09,25,986.69
2008,01,05,09,26,986.69
2008,01,05,09,27,986.69
2008,01,05,09,28,986.69
2008,01,05,09,29,986.69
2008,01,05,09,30,987.08
2008,01,05,09,31,987.10
2008,01,05,09,32,987.10
2008,01,05,09,33,987.10
2008,01,05,09,34,987.10
2008,01,05,09,35,987.10
2008,01,05,09,36,987.10
2008,01,05,09,37,987.10
2008,01,05,09,38,987.10
2008,01,05,09,39,987.10
2008,01,05,09,40,987.10
2008,01,05,09,41,987.10
2008,01,05,09,42,987.10
2008,01,05,09,43,987.10
2008,01,05,09,44,987.10
2008,01,05,09,45,987.23
2008,01,05,09,46,987.23
2008,01,05,09,47,987.23
2008,01,05,09,48,987.23
2008,01,05,09,49,987.23
2008,01,05,09,50,987.23
2008,01,05,09,51,987.23
2008,01,05,09,52,987.23
2008,01,05,09,53,987.23
2008,01,05,09,54,987.23
2008,01,05,09,55,987.23
2008,01,05,09,56,987.23
2008,01,05,09,57,987.23
2008,01,05,09,58,987.23
2008,01,05,09,59,987.23
2008,01,05,10,00,987.20
2008,01,05,10,01,987.20
2008,01,05,10,02,987.20
2008,01,05,10,03,987.20
2008,01,05,10,04,987.20
2008,01,05,10,05,987.20
2008,01,05,10,06,987.20
2008,01,05,10,07,987.20
2008,01,05,10,08,987.20
2008,01,05,10,09,987.20
2008,01,05,10,10,987.20
2008,01,05,10,11,987.20
2008,01,05,10,12,987.20
2008,01,05,10,13,987.20
2008,01,05,10,14,987.20
2008,01,05,10,15,987.71
2008,01,05,10,16,987.71
2008,01,05,10,17,987.71
2008,01,05,10,18,987.71
2008,01,05,10,19,987.71
2008,01,05,10,20,987.71
2008,01,05,10,21,987.71
2008,01,05,10,22,987.71
2008,01,05,10,23,987.71
2008,01,05,10,24,987.71
2008,01,05,10,25,987.71
2008,01,05,10,26,987.71
2008,01,05,10,27,987.71
2008,01,05,10,28,987.71
2008,01,05,10,29,987.71
2008,01,05,10,30,987.97
2008,01,05,10,31,987.98
2008,01,05,10,32,987.98
2008,01,05,10,33,987.98
2008,01,05,10,34,987.98
2008,01,05,10,35,987.98
2008,01,05,10,36,987.98
2008,01,05,10,37,987.98
2008,01,05,10,38,987.98
2008,01,05,10,39,987.98
2008,01,05,10,40,987.98
2008,01,05,10,41,987.98
2008,01,05,10,42,987.98
2008,01,05,10,43,987.98
2008,01,05,10,44,987.98
2008,01,05,10,45,988.28
2008,01,05,10,46,988.28
2008,01,05,10,47,988.28
2008,01,05,10,48,988.28
2008,01,05,10,49,988.28
2008,01,05,10,50,988.28
2008,01,05,10,51,988.28
2008,01,05,10,52,988.28
2008,01,05,10,53,988.28
2008,01,05,10,54,988.28
2008,01,05,10,55,988.28
2008,01,05,10,56,988.28
2008,01,05,10,57,988.28
2008,01,05,10,58,988.28
2008,01,05,10,59,988.28
2008,01,05,11,00,988.25
2008,01,05,11,01,988.25
2008,01,05,11,02,988.25
2008,01,05,11,03,988.25
2008,01,05,11,04,988.25
2008,01,05,11,05,988.25
2008,01,05,11,06,988.25
2008,01,05,11,07,988.25
2008,01,05,11,08,988.25
2008,01,05,11,09,988.25
2008,01,05,11,10,988.25
2008,01,05,11,11,988.25
2008,01,05,11,12,988.25
2008,01,05,11,13,988.25
2008,01,05,11,14,988.25
2008,01,05,11,15,988.50
2008,01,05,11,16,988.52
2008,01,05,11,17,988.52
2008,01,05,11,18,988.52
2008,01,05,11,19,988.52
2008,01,05,11,20,988.52
2008,01,05,11,21,988.52
2008,01,05,11,22,988.52
2008,01,05,11,23,988.52
2008,01,05,11,24,988.52
2008,01,05,11,25,988.52
2008,01,05,11,26,988.52
2008,01,05,11,27,988.52
2008,01,05,11,28,988.52
2008,01,05,11,29,988.52
2008,01,05,11,30,988.40
2008,01,05,11,31,988.39
2008,01,05,11,32,988.39
2008,01,05,11,33,988.39
2008,01,05,11,34,988.39
2008,01,05,11,35,988.39
2008,01,05,11,36,988.39
2008,01,05,11,37,988.39
2008,01,05,11,38,988.39
2008,01,05,11,39,988.39
2008,01,05,11,40,988.39
2008,01,05,11,41,988.39
2008,01,05,11,42,988.39
2008,01,05,11,43,988.39
2008,01,05,11,44,988.39
2008,01,05,11,45,988.35
2008,01,05,11,46,988.35
2008,01,05,11,47,988.35
2008,01,05,11,48,988.35
2008,01,05,11,49,988.35
2008,01,05,11,50,988.35
2008,01,05,11,51,988.35
2008,01,05,11,52,988.35
2008,01,05,11,53,988.35
2008,01,05,11,54,988.35
2008,01,05,11,55,988.35
2008,01,05,11,56,988.35
2008,01,05,11,57,988.35
2008,01,05,11,58,988.35
2008,01,05,11,59,988.35
2008,01,05,12,00,988.55
2008,01,05,12,01,988.55
2008,01,05,12,02,988.55
2008,01,05,12,03,988.55
2008,01,05,12,04,988.55
2008,01,05,12,05,988.55
2008,01,05,12,06,988.55
2008,01,05,12,07,988.55
2008,01,05,12,08,988.55
2008,01,05,12,09,988.55
2008,01,05,12,10,988.55
2008,01,05,12,11,988.55
2008,01,05,12,12,988.55
2008,01,05,12,13,988.55
2008,01,05,12,14,988.55
2008,01,05,12,15,988.93
2008,01,05,12,16,988.93
2008,01,05,12,17,988.93
2008,01,05,12,18,988.93
2008,01,05,12,19,988.93
2008,01,05,12,20,988.93
2008,01,05,12,21,988.93
2008,01,05,12,22,988.93
2008,01,05,12,23,988.93
2008,01,05,12,24,988.93
2008,01,05,12,25,988.93
2008,01,05,12,26,988.93
2008,01,05,12,27,988.93
2008,01,05,12,28,988.93
2008,01,05,12,29,988.93
2008,01,05,12,30,989.13
2008,01,05,12,31,989.13
2008,01,05,12,32,989.13
2008,01,05,12,33,989.13
2008,01,05,12,34,989.13
2008,01,05,12,35,989.13
2008,01,05,12,36,989.13
2008,01,05,12,37,989.13
2008,01,05,12,38,989.13
2008,01,05,12,39,989.13
2008,01,05,12,40,989.13
2008,01,05,12,41,989.13
2008,01,05,12,42,989.13
2008,01,05,12,43,989.13
2008,01,05,12,44,989.13
2008,01,05,12,45,989.22
2008,01,05,12,46,989.23
2008,01,05,12,47,989.23
2008,01,05,12,48,989.23
2008,01,05,12,49,989.23
2008,01,05,12,50,989.23
2008,01,05,12,51,989.23
2008,01,05,12,52,989.23
2008,01,05,12,53,989.23
2008,01,05,12,54,989.23
2008,01,05,12,55,989.23
2008,01,05,12,56,989.23
2008,01,05,12,57,989.23
2008,01,05,12,58,989.23
2008,01,05,12,59,989.23
2008,01,05,13,00,989.27
2008,01,05,13,01,989.27
2008,01,05,13,02,989.27
2008,01,05,13,03,989.27
2008,01,05,13,04,989.27
2008,01,05,13,05,989.27
2008,01,05,13,06,989.27
2008,01,05,13,07,989.27
2008,01,05,13,08,989.27
2008,01,05,13,09,989.27
2008,01,05,13,10,989.27
2008,01,05,13,11,989.27
2008,01,05,13,12,989.27
2008,01,05,13,13,989.27
2008,01,05,13,14,989.27
2008,01,05,13,15,989.33
2008,01,05,13,16,989.33
2008,01,05,13,17,989.33
2008,01,05,13,18,989.33
2008,01,05,13,19,989.33
2008,01,05,13,20,989.33
2008,01,05,13,21,989.33
2008,01,05,13,22,989.33
2008,01,05,13,23,989.33
2008,01,05,13,24,989.33
2008,01,05,13,25,989.33
2008,01,05,13,26,989.33
2008,01,05,13,27,989.33
2008,01,05,13,28,989.33
2008,01,05,13,29,989.33
2008,01,05,13,30,989.67
2008,01,05,13,31,989.67
2008,01,05,13,32,989.67
2008,01,05,13,33,989.67
2008,01,05,13,34,989.67
2008,01,05,13,35,989.67
2008,01,05,13,36,989.67
2008,01,05,13,37,989.67
2008,01,05,13,38,989.67
2008,01,05,13,39,989.67
2008,01,05,13,40,989.67
2008,01,05,13,41,989.67
2008,01,05,13,42,989.67
2008,01,05,13,43,989.67
2008,01,05,13,44,989.67
2008,01,05,13,45,989.79
2008,01,05,13,46,989.81
2008,01,05,13,47,989.81
2008,01,05,13,48,989.81
2008,01,05,13,49,989.81
2008,01,05,13,50,989.81
2008,01,05,13,51,989.81
2008,01,05,13,52,989.81
2008,01,05,13,53,989.81
2008,01,05,13,54,989.81
2008,01,05,13,55,989.81
2008,01,05,13,56,989.81
2008,01,05,13,57,989.81
2008,01,05,13,58,989.81
2008,01,05,13,59,989.81
2008,01,05,14,00,989.84
2008,01,05,14,01,989.84
2008,01,05,14,02,989.84
2008,01,05,14,03,989.84
2008,01,05,14,04,989.84
2008,01,05,14,05,989.84
2008,01,05,14,06,989.84
2008,01,05,14,07,989.84
2008,01,05,14,08,989.84
2008,01,05,14,09,989.84
2008,01,05,14,10,989.84
2008,01,05,14,11,989.84
2008,01,05,14,12,989.84
2008,01,05,14,13,989.84
2008,01,05,14,14,989.84
2008,01,05,14,15,990.21
2008,01,05,14,16,990.21
2008,01,05,14,17,990.21
2008,01,05,14,18,990.21
2008,01,05,14,19,990.21
2008,01,05,14,20,990.21
2008,01,05,14,21,990.21
2008,01,05,14,22,990.21
2008,01,05,14,23,990.21
2008,01,05,14,24,990.21
2008,01,05,14,25,990.21
2008,01,05,14,26,990.21
2008,01,05,14,27,990.21
2008,01,05,14,28,990.21
2008,01,05,14,29,990.21
2008,01,05,14,30,990.32
2008,01,05,14,31,990.32
2008,01,05,14,32,990.32
2008,01,05,14,33,990.32
2008,01,05,14,34,990.32
2008,01,05,14,35,990.32
2008,01,05,14,36,990.32
2008,01,05,14,37,990.32
2008,01,05,14,38,990.32
2008,01,05,14,39,990.32
2008,01,05,14,40,990.32
2008,01,05,14,41,990.32
2008,01,05,14,42,990.32
2008,01,05,14,43,990.32
2008,01,05,14,44,990.32
2008,01,05,14,45,990.37
2008,01,05,14,46,990.38
2008,01,05,14,47,990.38
2008,01,05,14,48,990.38
2008,01,05,14,49,990.38
2008,01,05,14,50,990.38
2008,01,05,14,51,990.38
2008,01,05,14,52,990.38
2008,01,05,14,53,990.38
2008,01,05,14,54,990.38
2008,01,05,14,55,990.38
2008,01,05,14,56,990.38
2008,01,05,14,57,990.38
2008,01,05,14,58,990.38
2008,01,05,14,59,990.38
2008,01,05,15,00,990.76
2008,01,05,15,01,990.82
2008,01,05,15,02,990.82
2008,01,05,15,03,990.82
2008,01,05,15,04,990.82
2008,01,05,15,05,990.82
2008,01,05,15,06,990.82
2008,01,05,15,07,990.82
2008,01,05,15,08,990.82
2008,01,05,15,09,990.82
2008,01,05,15,10,990.82
2008,01,05,15,11,990.82
2008,01,05,15,12,990.82
2008,01,05,15,13,990.82
2008,01,05,15,14,990.82
2008,01,05,15,15,991.03
2008,01,05,15,16,991.03
2008,01,05,15,17,991.03
2008,01,05,15,18,991.03
2008,01,05,15,19,991.03
2008,01,05,15,20,991.03
2008,01,05,15,21,991.03
2008,01,05,15,22,991.03
2008,01,05,15,23,991.03
2008,01,05,15,24,991.03
2008,01,05,15,25,991.03
2008,01,05,15,26,991.03
2008,01,05,15,27,991.03
2008,01,05,15,28,991.03
2008,01,05,15,29,991.03
2008,01,05,15,30,991.20
2008,01,05,15,31,991.20
2008,01,05,15,32,991.20
2008,01,05,15,33,991.20
2008,01,05,15,34,991.20
2008,01,05,15,35,991.20
2008,01,05,15,36,991.20
2008,01,05,15,37,991.20
2008,01,05,15,38,991.20
2008,01,05,15,39,991.20
2008,01,05,15,40,991.20
2008,01,05,15,41,991.20
2008,01,05,15,42,991.20
2008,01,05,15,43,991.20
2008,01,05,15,44,991.20
2008,01,05,15,45,991.33
2008,01,05,15,46,991.33
2008,01,05,15,47,991.33
2008,01,05,15,48,991.33
2008,01,05,15,49,991.33
2008,01,05,15,50,991.33
2008,01,05,15,51,991.33
2008,01,05,15,52,991.33
2008,01,05,15,53,991.33
2008,01,05,15,54,991.33
2008,01,05,15,55,991.33
2008,01,05,15,56,991.33
2008,01,05,15,57,991.33
2008,01,05,15,58,991.33
2008,01,05,15,59,991.33
2008,01,05,16,00,991.47
2008,01,05,16,01,991.50
2008,01,05,16,02,991.50
2008,01,05,16,03,991.50
2008,01,05,16,04,991.50
2008,01,05,16,05,991.50
2008,01,05,16,06,991.50
2008,01,05,16,07,991.50
2008,01,05,16,08,991.50
2008,01,05,16,09,991.50
2008,01,05,16,10,991.50
2008,01,05,16,11,991.50
2008,01,05,16,12,991.50
2008,01,05,16,13,991.50
2008,01,05,16,14,991.50
2008,01,05,16,15,991.81
2008,01,05,16,16,991.81
2008,01,05,16,17,991.81
2008,01,05,16,18,991.81
2008,01,05,16,19,991.81
2008,01,05,16,20,991.81
2008,01,05,16,21,991.81
2008,01,05,16,22,991.81
2008,01,05,16,23,991.81
2008,01,05,16,24,991.81
2008,01,05,16,25,991.81
2008,01,05,16,26,991.81
2008,01,05,16,27,991.81
2008,01,05,16,28,991.81
2008,01,05,16,29,991.81
2008,01,05,16,30,992.21
2008,01,05,16,31,992.21
2008,01,05,16,32,992.21
2008,01,05,16,33,992.21
2008,01,05,16,34,992.21
2008,01,05,16,35,992.21
2008,01,05,16,36,992.21